Los Alamos, NM

7:58 PM MDT on July 23, 2017 (GMT -0600)
Los Alamos

Weather History for KLAM - November, 2012

Change the Weather History Date:

Tuesday, November 13, 2012

  Actual Average Record
Temperature  
Mean Temperature 37 °F -  
Max Temperature 48 °F 51 °F 65 °F (1967)
Min Temperature 26 °F 28 °F 10 °F (2014)
Degree Days  
Heating Degree Days 28    
Moisture  
Dew Point 5 °F    
Average Humidity 25    
Maximum Humidity 39    
Minimum Humidity 16    
Precipitation  
Precipitation 0.00 in - - ()
Sea Level Pressure  
Sea Level Pressure 30.31 in    
Wind  
Wind Speed 2 mph (ESE)    
Max Wind Speed 10 mph    
Max Gust Speed -    
Averages and records for this station are not official NWS values.
T = Trace of Precipitation, MM = Missing Value Source: NWS Daily Summary

Daily Weather History Graph

Daily Weather History Graph

Search for Another Location

Airport or City:

Trip Planner

Search our weather history database for the weather conditions in past years. The results will help you decide how hot, cold, wet, or windy it might be!

Date:

Astronomy

Nov. 13, 2012 Rise Set
Actual Time 6:39 AM MST 4:58 PM MST
Civil Twilight 6:12 AM MST 5:25 PM MST
Nautical Twilight 5:41 AM MST 5:56 PM MST
Astronomical Twilight 5:11 AM MST 6:26 PM MST
Moon 6:20 AM MST (11/13) 4:55 PM MST (11/13)
Length of Visible Light 11h 13m
Length of Day
10h 18m
Waning Crescent, 0% of the Moon is Illuminated
Nov 13
Waning Crescent
Nov 13
New
Nov 20
First Quarter
Nov 28
Full
Dec 6
Last Quarter

Hourly Weather History & Observations

Time (MST) Temp. Windchill Dew Point Humidity Pressure Visibility Wind Dir Wind Speed Gust Speed Precip Events Conditions
12:15 AM 33.8 °F 30.8 °F -0.4 °F 23% 30.35 in - NW 3.5 mph - N/A   Clear
12:35 AM 33.6 °F 29.4 °F -0.0 °F 24% 30.34 in - NNW 4.6 mph - N/A   Clear
12:55 AM 33.8 °F 30.8 °F -0.4 °F 23% 30.33 in - North 3.5 mph - N/A   Clear
1:15 AM 33.4 °F 30.4 °F -0.4 °F 24% 30.33 in - North 3.5 mph - N/A   Clear
1:35 AM 33.1 °F - -0.4 °F 24% 30.32 in - Calm Calm - N/A   Clear
1:55 AM 32.2 °F - 0.3 °F 26% 30.32 in - Calm Calm - N/A   Clear
2:35 AM 30.9 °F - 0.9 °F 28% 30.31 in - Calm Calm - N/A   Clear
2:55 AM 31.8 °F 28.5 °F 0.9 °F 27% 30.31 in - NNE 3.5 mph - N/A   Clear
3:15 AM 31.5 °F - 0.9 °F 27% 30.30 in - Calm Calm - N/A   Clear
3:35 AM 31.8 °F - 1.2 °F 27% 30.30 in - Calm Calm - N/A   Clear
3:55 AM 31.6 °F - 1.4 °F 28% 30.30 in - Calm Calm - N/A   Clear
4:15 AM 31.8 °F - 1.4 °F 27% 30.30 in - Calm Calm - N/A   Clear
4:35 AM 28.4 °F 24.6 °F 2.7 °F 33% 30.30 in - NNW 3.5 mph - N/A   Clear
4:55 AM 28.2 °F 24.4 °F 3.2 °F 34% 30.31 in - WNW 3.5 mph - N/A   Clear
5:15 AM 28.9 °F - 2.8 °F 33% 30.31 in - Calm Calm - N/A   Clear
5:35 AM 27.9 °F 22.6 °F 3.4 °F 35% 30.31 in - NNW 4.6 mph - N/A   Clear
5:55 AM 29.8 °F - 2.1 °F 31% 30.31 in - Calm Calm - N/A   Clear
6:15 AM 31.6 °F - 1.9 °F 28% 30.31 in - Calm Calm - N/A   Clear
6:35 AM 30.9 °F - 1.9 °F 29% 30.31 in - Calm Calm - N/A   Clear
6:55 AM 27.3 °F - 3.4 °F 36% 30.31 in - Calm Calm - N/A   Clear
7:15 AM 26.2 °F - 3.9 °F 39% 30.32 in - Calm Calm - N/A   Clear
7:35 AM 28.0 °F - 4.3 °F 36% 30.32 in - Calm Calm - N/A   Clear
7:55 AM 30.0 °F - 4.5 °F 34% 30.32 in - Calm Calm - N/A   Clear
8:15 AM 31.5 °F - 3.7 °F 31% 30.32 in - Calm Calm - N/A   Clear
8:35 AM 31.8 °F - 4.1 °F 31% 30.32 in - Calm Calm - N/A   Clear
8:55 AM 31.8 °F - 5.9 °F 34% 30.32 in - Calm Calm - N/A   Clear
9:15 AM 34.0 °F 31.0 °F 6.8 °F 32% 30.32 in - SE 3.5 mph - N/A   Clear
9:35 AM 35.6 °F 32.8 °F 6.4 °F 30% 30.32 in - SSE 3.5 mph - N/A   Clear
9:55 AM 36.7 °F 34.1 °F 6.1 °F 28% 30.33 in - ESE 3.5 mph - N/A   Clear
10:15 AM 36.7 °F 32.9 °F 6.8 °F 29% 30.33 in - ESE 4.6 mph - N/A   Clear
10:35 AM 35.4 °F 31.5 °F 7.2 °F 31% 30.33 in - ENE 4.6 mph - N/A   Clear
10:55 AM 37.8 °F - 6.8 °F 28% 30.32 in - Calm Calm - N/A   Clear
11:15 AM 40.3 °F - 4.3 °F 22% 30.31 in - Calm Calm - N/A   Clear
11:55 AM 42.1 °F 40.2 °F 3.9 °F 21% 30.29 in - ENE 3.5 mph - N/A   Clear
12:15 PM 43.0 °F 41.3 °F 5.2 °F 21% 30.28 in - East 3.5 mph - N/A   Clear
12:35 PM 43.9 °F 42.3 °F 5.2 °F 20% 30.27 in - East 3.5 mph - N/A   Clear
12:55 PM 44.8 °F 41.6 °F 5.5 °F 20% 30.27 in - East 5.8 mph - N/A   Clear
1:15 PM 44.4 °F 41.2 °F 5.0 °F 20% 30.27 in - ESE 5.8 mph - N/A   Clear
1:35 PM 45.3 °F - 4.5 °F 19% 30.27 in - Calm Calm - N/A   Clear
1:55 PM 46.0 °F - 4.3 °F 18% 30.27 in - Calm Calm - N/A   Clear
2:15 PM 46.6 °F - 4.3 °F 18% 30.26 in - Calm Calm - N/A   Clear
2:35 PM 47.1 °F - 4.3 °F 17% 30.27 in - Calm Calm - N/A   Clear
2:55 PM 47.8 °F - 4.3 °F 17% 30.27 in - Calm Calm - N/A   Clear
3:15 PM 47.7 °F - 4.1 °F 17% 30.26 in - SE 3.5 mph - N/A   Clear
3:35 PM 48.4 °F - 4.1 °F 16% 30.27 in - East 3.5 mph - N/A   Clear
3:55 PM 48.2 °F - 4.6 °F 17% 30.27 in - East 3.5 mph - N/A   Clear
4:15 PM 48.2 °F - 4.1 °F 16% 30.28 in - SE 4.6 mph - N/A   Clear
4:35 PM 47.8 °F - 4.3 °F 17% 30.28 in - SSE 3.5 mph - N/A   Clear
4:55 PM 47.3 °F - 4.3 °F 17% 30.29 in - Calm Calm - N/A   Clear
5:15 PM 46.6 °F - 4.6 °F 18% 30.30 in - SSW 4.6 mph - N/A   Clear
5:35 PM 45.5 °F 43.2 °F 5.0 °F 19% 30.30 in - SW 4.6 mph - N/A   Clear
5:55 PM 44.8 °F 41.6 °F 6.1 °F 20% 30.30 in - West 5.8 mph - N/A   Clear
6:15 PM 43.2 °F 37.4 °F 7.0 °F 23% 30.30 in - West 10.4 mph - N/A   Clear
6:35 PM 44.6 °F 39.7 °F 5.0 °F 20% 30.31 in - West 9.2 mph - N/A   Clear
6:55 PM 44.1 °F 40.1 °F 5.4 °F 20% 30.31 in - West 6.9 mph - N/A   Clear
7:15 PM 44.6 °F 42.2 °F 6.4 °F 21% 30.31 in - West 4.6 mph - N/A   Clear
7:35 PM 45.7 °F - 7.7 °F 21% 30.31 in - Calm Calm - N/A   Clear
7:55 PM 45.3 °F - 7.2 °F 21% 30.33 in - Calm Calm - N/A   Clear
8:15 PM 45.3 °F - 7.5 °F 21% 30.33 in - Calm Calm - N/A   Clear
8:35 PM 43.3 °F 40.7 °F 8.4 °F 24% 30.33 in - North 4.6 mph - N/A   Clear
8:55 PM 42.3 °F - 8.6 °F 25% 30.34 in - Calm Calm - N/A   Clear
9:15 PM 41.4 °F 39.4 °F 8.8 °F 26% 30.34 in - NNE 3.5 mph - N/A   Clear
9:35 PM 41.9 °F - 9.3 °F 26% 30.34 in - Calm Calm - N/A   Clear
9:55 PM 41.2 °F - 9.1 °F 27% 30.34 in - Calm Calm - N/A   Clear
10:15 PM 41.5 °F - 8.6 °F 26% 30.35 in - Calm Calm - N/A   Clear
10:35 PM 41.2 °F 39.2 °F 8.8 °F 26% 30.35 in - SSW 3.5 mph - N/A   Clear
10:55 PM 39.7 °F 36.5 °F 8.6 °F 28% 30.35 in - South 4.6 mph - N/A   Clear
11:15 PM 39.2 °F 34.2 °F 9.0 °F 29% 30.35 in - SSW 6.9 mph - N/A   Clear
11:35 PM 39.9 °F 35.8 °F 8.6 °F 28% 30.35 in - SW 5.8 mph - N/A   Clear
11:55 PM 40.8 °F 38.8 °F 8.2 °F 26% 30.35 in - SSW 3.5 mph - N/A   Clear